Location: RyutenAO
(34.8939°N, 134.0022°E)
Time: 00:14:39
(UTC+09:00)

Tiangong - Pass Details

Date: 03 December 2022
Orbit: 383 x 386 km, 41.5° (Epoch: 29 January)

Event Time Altitude Azimuth Distance (km) Brightness Sun altitude
Rises 18:38:08 0° 283° (WNW) 2,257 2.9 -21.2°
Reaches altitude 10° 18:40:26 10° 298° (WNW) 1,406 1.4 -21.7°
Enters shadow 18:42:12 21° 328° (NNW) 926 -0.1 -22.0°
